sat.trackr.live / text

‹ back to catalog

STARLINK-5377

NORAD 56141 · 2023-046BB

PAYLOAD ACTIVE UNKNOWN

§ Identity

Operator
Country
US
Launch date
2023-03-29
Launch site
AFETR
Launch vehicle
Mass (kg)
RCS (m²)

Purposes: comms

External: N2YO · Heavens-Above · Gunter

§ Orbital elements

Epoch: 2026-09-20T00:56:07.707840Z

Period
94.27 min
Inclination
43.0020°
Eccentricity
0.0001468
Mean motion
15.27575997 rev/d
Perigee alt
482.1 km
Apogee alt
484.1 km
Semi-major
6,861.2 km
B*
1.5595e-5
RAAN
129.3763°
Arg perigee
254.5863°
Mean anomaly
105.4827°
Rev number
19,192

§ Raw data

STARLINK-53771 56141U 23046BB  26263.03897810  .00000167  00000+0  15595-4 0  99992 56141  43.0020 129.3763 0001468 254.5863 105.4827 15.27575997191927

JSON: /api/v1/satellites/56141 · /tle

For live sub-satellite position, see the globe view (requires WebGL).

§ Visibility from observer

Set your observer location to see the next 7 days of passes ≥ 10°. The values pass through the URL so the page stays shareable.

No JS? Fill the form by hand. The geolocation button needs JavaScript.